Time,TemperatureF,DewpointF,PressureIn,WindDirection,WindDirectionDegrees,WindSpeedMPH,WindSpeedGustMPH,Humidity,HourlyPrecipIn,Conditions,Clouds,dailyrainin,SoftwareType,DateUTC
2013-06-03 00:01:00,61.0,60.5,29.96,East,90,0.0,2.0,98,0.00,,,0.00,Rainwise IP-100,2013-06-03 05:01:00,
2013-06-03 00:06:00,60.0,59.5,29.96,East,90,0.0,0.0,98,0.00,,,0.00,Rainwise IP-100,2013-06-03 05:06:00,
2013-06-03 00:11:00,60.0,59.5,29.96,East,90,0.0,2.0,98,0.00,,,0.00,Rainwise IP-100,2013-06-03 05:11:00,
2013-06-03 00:16:00,61.0,60.5,29.95,ENE,67,1.0,3.0,98,0.00,,,0.00,Rainwise IP-100,2013-06-03 05:16:00,
2013-06-03 00:21:00,61.0,60.5,29.95,NE,45,3.0,5.0,98,0.00,,,0.00,Rainwise IP-100,2013-06-03 05:21:00,
2013-06-03 00:26:00,61.0,60.5,29.95,NE,45,3.0,6.0,98,0.00,,,0.00,Rainwise IP-100,2013-06-03 05:26:00,
2013-06-03 00:31:00,61.0,60.5,29.95,NE,45,1.0,5.0,98,0.00,,,0.00,Rainwise IP-100,2013-06-03 05:31:00,
2013-06-03 00:36:00,61.0,60.5,29.96,NE,45,3.0,5.0,98,0.00,,,0.00,Rainwise IP-100,2013-06-03 05:36:00,
2013-06-03 00:41:00,61.0,60.5,29.96,NE,45,3.0,6.0,98,0.00,,,0.00,Rainwise IP-100,2013-06-03 05:41:00,
2013-06-03 00:46:00,61.0,60.5,29.95,NE,45,3.0,5.0,98,0.00,,,0.00,Rainwise IP-100,2013-06-03 05:46:00,
2013-06-03 00:51:00,61.0,60.5,29.95,NE,45,2.0,5.0,98,0.00,,,0.00,Rainwise IP-100,2013-06-03 05:51:00,
2013-06-03 00:56:00,61.0,60.5,29.95,North,360,0.0,6.0,98,0.00,,,0.00,Rainwise IP-100,2013-06-03 05:56:00,
2013-06-03 01:01:00,61.0,60.5,29.95,ENE,67,4.0,6.0,98,0.00,,,0.00,Rainwise IP-100,2013-06-03 06:01:00,
2013-06-03 01:06:00,61.0,60.5,29.95,NE,45,1.0,6.0,98,0.00,,,0.00,Rainwise IP-100,2013-06-03 06:06:00,
2013-06-03 01:11:00,61.0,60.5,29.95,NE,45,1.0,5.0,98,0.00,,,0.00,Rainwise IP-100,2013-06-03 06:11:00,
2013-06-03 01:16:00,61.0,60.5,29.95,NE,45,3.0,6.0,98,0.00,,,0.00,Rainwise IP-100,2013-06-03 06:16:00,
2013-06-03 01:21:00,61.0,60.5,29.95,NE,45,5.0,6.0,98,0.00,,,0.00,Rainwise IP-100,2013-06-03 06:21:00,
2013-06-03 01:26:00,61.0,60.5,29.95,NE,45,3.0,5.0,98,0.00,,,0.00,Rainwise IP-100,2013-06-03 06:26:00,
2013-06-03 01:31:00,61.0,60.5,29.95,ENE,67,1.0,5.0,98,0.00,,,0.00,Rainwise IP-100,2013-06-03 06:31:00,
2013-06-03 01:36:00,60.0,59.5,29.95,NNE,22,3.0,4.0,98,0.00,,,0.00,Rainwise IP-100,2013-06-03 06:36:00,
2013-06-03 01:41:00,60.0,59.5,29.95,NNE,22,0.0,5.0,98,0.00,,,0.00,Rainwise IP-100,2013-06-03 06:41:00,
2013-06-03 01:46:00,60.0,59.5,29.96,North,360,4.0,4.0,98,0.00,,,0.00,Rainwise IP-100,2013-06-03 06:46:00,
2013-06-03 01:51:00,60.0,59.5,29.96,North,360,0.0,5.0,98,0.00,,,0.00,Rainwise IP-100,2013-06-03 06:51:00,
2013-06-03 01:56:00,60.0,59.5,29.95,North,360,0.0,0.0,98,0.00,,,0.00,Rainwise IP-100,2013-06-03 06:56:00,
2013-06-03 02:01:00,60.0,59.5,29.95,North,360,0.0,0.0,98,0.00,,,0.00,Rainwise IP-100,2013-06-03 07:01:00,
2013-06-03 02:06:00,59.0,58.0,29.95,North,360,0.0,0.0,98,0.00,,,0.00,Rainwise IP-100,2013-06-03 07:06:00,
2013-06-03 02:11:00,59.0,58.0,29.95,North,360,0.0,0.0,98,0.00,,,0.00,Rainwise IP-100,2013-06-03 07:11:00,
2013-06-03 02:16:00,59.0,58.0,29.95,ENE,67,0.0,1.0,98,0.00,,,0.00,Rainwise IP-100,2013-06-03 07:16:00,
2013-06-03 02:21:00,59.0,58.0,29.95,ENE,67,0.0,4.0,98,0.00,,,0.00,Rainwise IP-100,2013-06-03 07:21:00,
2013-06-03 02:26:00,59.0,58.0,29.95,ENE,67,1.0,3.0,98,0.00,,,0.00,Rainwise IP-100,2013-06-03 07:26:00,
2013-06-03 02:31:00,59.0,58.0,29.95,ENE,67,2.0,3.0,98,0.00,,,0.00,Rainwise IP-100,2013-06-03 07:31:00,
2013-06-03 02:36:00,60.0,59.5,29.94,NE,45,4.0,5.0,98,0.00,,,0.00,Rainwise IP-100,2013-06-03 07:36:00,
2013-06-03 02:41:00,60.0,59.5,29.94,NE,45,1.0,4.0,98,0.00,,,0.00,Rainwise IP-100,2013-06-03 07:41:00,
2013-06-03 02:46:00,60.0,59.5,29.94,NE,45,2.0,4.0,98,0.00,,,0.00,Rainwise IP-100,2013-06-03 07:46:00,
2013-06-03 02:51:00,60.0,59.5,29.94,NE,45,3.0,4.0,98,0.00,,,0.00,Rainwise IP-100,2013-06-03 07:51:00,
2013-06-03 02:56:00,60.0,59.5,29.94,NE,45,1.0,4.0,98,0.00,,,0.00,Rainwise IP-100,2013-06-03 07:56:00,
2013-06-03 03:01:00,59.0,58.0,29.94,NE,45,1.0,4.0,98,0.00,,,0.00,Rainwise IP-100,2013-06-03 08:01:00,
2013-06-03 03:06:00,59.0,58.0,29.94,NE,45,2.0,4.0,98,0.00,,,0.00,Rainwise IP-100,2013-06-03 08:06:00,
2013-06-03 03:11:00,59.0,58.0,29.94,NE,45,4.0,4.0,98,0.00,,,0.00,Rainwise IP-100,2013-06-03 08:11:00,
2013-06-03 03:16:00,59.0,58.0,29.95,NE,45,3.0,5.0,98,0.00,,,0.00,Rainwise IP-100,2013-06-03 08:16:00,
2013-06-03 03:21:00,59.0,58.0,29.95,NE,45,3.0,4.0,98,0.00,,,0.00,Rainwise IP-100,2013-06-03 08:21:00,
2013-06-03 03:26:00,59.0,58.0,29.95,ENE,67,4.0,7.0,98,0.00,,,0.00,Rainwise IP-100,2013-06-03 08:26:00,
2013-06-03 03:31:00,59.0,58.0,29.95,ENE,67,5.0,7.0,98,0.00,,,0.00,Rainwise IP-100,2013-06-03 08:31:00,
2013-06-03 03:36:00,59.0,58.0,29.95,NNE,22,5.0,7.0,98,0.00,,,0.00,Rainwise IP-100,2013-06-03 08:36:00,
2013-06-03 03:41:00,59.0,58.0,29.95,ENE,67,0.0,6.0,98,0.00,,,0.00,Rainwise IP-100,2013-06-03 08:41:00,
2013-06-03 03:46:00,59.0,58.0,29.95,NE,45,3.0,7.0,98,0.00,,,0.00,Rainwise IP-100,2013-06-03 08:46:00,
2013-06-03 03:51:00,59.0,58.0,29.95,NE,45,5.0,7.0,98,0.00,,,0.00,Rainwise IP-100,2013-06-03 08:51:00,
2013-06-03 03:56:00,59.0,58.0,29.96,NE,45,7.0,8.0,98,0.00,,,0.00,Rainwise IP-100,2013-06-03 08:56:00,
2013-06-03 04:01:00,59.0,58.0,29.96,ENE,67,6.0,7.0,98,0.00,,,0.00,Rainwise IP-100,2013-06-03 09:01:00,
2013-06-03 04:06:00,59.0,58.0,29.96,NE,45,5.0,7.0,98,0.00,,,0.00,Rainwise IP-100,2013-06-03 09:06:00,
2013-06-03 04:11:00,59.0,58.0,29.96,NE,45,5.0,7.0,98,0.00,,,0.00,Rainwise IP-100,2013-06-03 09:11:00,
2013-06-03 04:16:00,59.0,58.0,29.96,NNE,22,4.0,6.0,98,0.00,,,0.00,Rainwise IP-100,2013-06-03 09:16:00,
2013-06-03 04:21:00,59.0,58.0,29.96,NE,45,0.0,6.0,98,0.00,,,0.00,Rainwise IP-100,2013-06-03 09:21:00,
2013-06-03 04:26:00,59.0,58.0,29.96,NNE,22,6.0,9.0,98,0.00,,,0.00,Rainwise IP-100,2013-06-03 09:26:00,
2013-06-03 04:31:00,59.0,58.0,29.96,NE,45,2.0,7.0,98,0.00,,,0.00,Rainwise IP-100,2013-06-03 09:31:00,
2013-06-03 04:36:00,59.0,58.0,29.97,NE,45,5.0,5.0,98,0.00,,,0.00,Rainwise IP-100,2013-06-03 09:36:00,
2013-06-03 04:41:00,59.0,58.0,29.97,NE,45,5.0,6.0,98,0.00,,,0.00,Rainwise IP-100,2013-06-03 09:41:00,
2013-06-03 04:46:00,59.0,58.0,29.97,NE,45,4.0,5.0,98,0.00,,,0.00,Rainwise IP-100,2013-06-03 09:46:00,
2013-06-03 04:51:00,59.0,58.0,29.97,NE,45,1.0,5.0,98,0.00,,,0.00,Rainwise IP-100,2013-06-03 09:51:00,
2013-06-03 04:56:00,58.0,57.5,29.97,NE,45,1.0,3.0,98,0.00,,,0.00,Rainwise IP-100,2013-06-03 09:56:00,
2013-06-03 05:01:00,58.0,57.5,29.97,NE,45,0.0,2.0,98,0.00,,,0.00,Rainwise IP-100,2013-06-03 10:01:00,
2013-06-03 05:06:00,58.0,57.5,29.98,NE,45,0.0,1.0,98,0.00,,,0.00,Rainwise IP-100,2013-06-03 10:06:00,
2013-06-03 05:11:00,58.0,57.5,29.98,North,360,0.0,3.0,98,0.00,,,0.00,Rainwise IP-100,2013-06-03 10:11:00,
2013-06-03 05:16:00,58.0,57.5,29.98,North,360,0.0,0.0,98,0.00,,,0.00,Rainwise IP-100,2013-06-03 10:16:00,
2013-06-03 05:21:00,58.0,57.5,29.98,North,360,0.0,0.0,98,0.00,,,0.00,Rainwise IP-100,2013-06-03 10:21:00,
2013-06-03 05:26:00,58.0,57.5,29.99,North,360,1.0,3.0,98,0.00,,,0.00,Rainwise IP-100,2013-06-03 10:26:00,
2013-06-03 05:31:00,58.0,57.5,29.99,North,360,0.0,2.0,98,0.00,,,0.00,Rainwise IP-100,2013-06-03 10:31:00,
2013-06-03 05:36:00,58.0,57.5,29.99,North,360,2.0,2.0,98,0.00,,,0.00,Rainwise IP-100,2013-06-03 10:36:00,
2013-06-03 05:41:00,58.0,57.5,29.99,NNE,22,2.0,5.0,98,0.00,,,0.00,Rainwise IP-100,2013-06-03 10:41:00,
2013-06-03 05:46:00,58.0,57.5,29.99,NNE,22,2.0,4.0,98,0.00,,,0.00,Rainwise IP-100,2013-06-03 10:46:00,
2013-06-03 05:51:00,58.0,57.5,29.99,NNE,22,1.0,3.0,98,0.00,,,0.00,Rainwise IP-100,2013-06-03 10:51:00,
2013-06-03 05:56:00,58.0,57.5,30.00,NNE,22,0.0,2.0,98,0.00,,,0.00,Rainwise IP-100,2013-06-03 10:56:00,
2013-06-03 06:01:00,58.0,57.5,30.00,NNE,22,2.0,3.0,98,0.00,,,0.00,Rainwise IP-100,2013-06-03 11:01:00,
2013-06-03 06:06:00,58.0,57.5,30.00,NE,45,3.0,3.0,98,0.00,,,0.00,Rainwise IP-100,2013-06-03 11:06:00,
2013-06-03 06:11:00,58.0,57.5,30.00,NE,45,1.0,4.0,98,0.00,,,0.00,Rainwise IP-100,2013-06-03 11:11:00,
2013-06-03 06:13:00,58.0,57.5,30.00,NE,45,1.0,4.0,98,0.00,,,0.00,Rainwise IP-100,2013-06-03 11:13:00,
2013-06-03 06:18:00,59.0,58.0,30.00,NE,45,1.0,5.0,98,0.00,,,0.00,Rainwise IP-100,2013-06-03 11:18:00,
2013-06-03 06:21:00,59.0,58.0,30.00,NE,45,1.0,5.0,98,0.00,,,0.00,Rainwise IP-100,2013-06-03 11:21:00,
2013-06-03 06:26:00,59.0,58.0,30.00,NE,45,2.0,5.0,98,0.00,,,0.00,Rainwise IP-100,2013-06-03 11:26:00,
2013-06-03 06:31:00,59.0,58.0,30.00,North,360,4.0,6.0,98,0.00,,,0.00,Rainwise IP-100,2013-06-03 11:31:00,
2013-06-03 06:36:00,59.0,58.0,30.01,ENE,67,1.0,5.0,98,0.00,,,0.00,Rainwise IP-100,2013-06-03 11:36:00,
2013-06-03 06:41:00,59.0,58.0,30.01,ENE,67,6.0,6.0,98,0.00,,,0.00,Rainwise IP-100,2013-06-03 11:41:00,
2013-06-03 06:46:00,59.0,58.0,30.00,NE,45,0.0,7.0,98,0.00,,,0.00,Rainwise IP-100,2013-06-03 11:46:00,
2013-06-03 06:51:00,59.0,58.0,30.00,NE,45,4.0,5.0,98,0.00,,,0.00,Rainwise IP-100,2013-06-03 11:51:00,
2013-06-03 06:56:00,59.0,58.0,29.99,East,90,0.0,7.0,98,0.00,,,0.00,Rainwise IP-100,2013-06-03 11:56:00,
2013-06-03 07:01:00,60.0,59.5,29.99,SSW,202,1.0,6.0,98,0.00,,,0.00,Rainwise IP-100,2013-06-03 12:01:00,
2013-06-03 07:06:00,60.0,59.5,30.00,NE,45,7.0,7.0,98,0.00,,,0.00,Rainwise IP-100,2013-06-03 12:06:00,
2013-06-03 07:11:00,60.0,59.5,30.00,NE,45,3.0,7.0,98,0.00,,,0.00,Rainwise IP-100,2013-06-03 12:11:00,
2013-06-03 07:16:00,61.0,60.5,30.00,ESE,112,0.0,7.0,98,0.00,,,0.00,Rainwise IP-100,2013-06-03 12:16:00,
2013-06-03 07:21:00,61.0,60.5,30.00,ENE,67,6.0,6.0,98,0.00,,,0.00,Rainwise IP-100,2013-06-03 12:21:00,
2013-06-03 07:26:00,62.0,61.5,30.01,NE,45,4.0,8.0,98,0.00,,,0.00,Rainwise IP-100,2013-06-03 12:26:00,
2013-06-03 07:31:00,62.0,61.5,30.01,East,90,1.0,5.0,98,0.00,,,0.00,Rainwise IP-100,2013-06-03 12:31:00,
2013-06-03 07:36:00,62.0,61.5,30.01,NE,45,3.0,6.0,98,0.00,,,0.00,Rainwise IP-100,2013-06-03 12:36:00,
2013-06-03 07:41:00,62.0,61.0,30.01,ENE,67,2.0,6.0,97,0.00,,,0.00,Rainwise IP-100,2013-06-03 12:41:00,
2013-06-03 07:46:00,62.0,61.0,30.01,East,90,0.0,9.0,97,0.00,,,0.00,Rainwise IP-100,2013-06-03 12:46:00,
2013-06-03 07:51:00,63.0,62.0,30.01,SSW,202,1.0,7.0,96,0.00,,,0.00,Rainwise IP-100,2013-06-03 12:51:00,
2013-06-03 07:56:00,63.0,61.5,30.02,East,90,2.0,6.0,94,0.00,,,0.00,Rainwise IP-100,2013-06-03 12:56:00,
2013-06-03 08:01:00,63.0,60.5,30.02,ENE,67,4.0,7.0,92,0.00,,,0.00,Rainwise IP-100,2013-06-03 13:01:00,
2013-06-03 08:06:00,63.0,60.5,30.02,ENE,67,2.0,8.0,92,0.00,,,0.00,Rainwise IP-100,2013-06-03 13:06:00,
2013-06-03 08:11:00,64.0,61.5,30.02,ENE,67,5.0,7.0,92,0.00,,,0.00,Rainwise IP-100,2013-06-03 13:11:00,
2013-06-03 08:16:00,64.0,61.0,30.02,East,90,2.0,8.0,90,0.00,,,0.00,Rainwise IP-100,2013-06-03 13:16:00,
2013-06-03 08:21:00,63.0,60.0,30.02,ENE,67,4.0,8.0,90,0.00,,,0.00,Rainwise IP-100,2013-06-03 13:21:00,
2013-06-03 08:26:00,64.0,61.5,30.03,East,90,0.0,8.0,91,0.00,,,0.00,Rainwise IP-100,2013-06-03 13:26:00,
2013-06-03 08:31:00,65.0,62.0,30.03,NE,45,3.0,6.0,90,0.00,,,0.00,Rainwise IP-100,2013-06-03 13:31:00,
2013-06-03 08:36:00,66.0,62.0,30.03,NNE,22,0.0,5.0,88,0.00,,,0.00,Rainwise IP-100,2013-06-03 13:36:00,
2013-06-03 08:42:00,66.0,61.5,30.03,North,360,4.0,5.0,86,0.00,,,0.00,Rainwise IP-100,2013-06-03 13:42:00,
2013-06-03 08:47:00,66.0,61.0,30.04,ESE,112,0.0,6.0,84,0.00,,,0.00,Rainwise IP-100,2013-06-03 13:47:00,
2013-06-03 08:52:00,66.0,61.0,30.04,ENE,67,2.0,6.0,85,0.00,,,0.00,Rainwise IP-100,2013-06-03 13:52:00,
2013-06-03 08:57:00,66.0,61.0,30.05,NE,45,0.0,5.0,85,0.00,,,0.00,Rainwise IP-100,2013-06-03 13:57:00,
2013-06-03 09:02:00,67.0,62.0,30.05,NE,45,1.0,6.0,83,0.00,,,0.00,Rainwise IP-100,2013-06-03 14:02:00,
2013-06-03 09:07:00,67.0,62.0,30.04,ESE,112,0.0,6.0,83,0.00,,,0.00,Rainwise IP-100,2013-06-03 14:07:00,
2013-06-03 09:12:00,68.0,62.5,30.04,ENE,67,3.0,7.0,83,0.00,,,0.00,Rainwise IP-100,2013-06-03 14:12:00,
2013-06-03 09:17:00,68.0,61.5,30.05,NE,45,3.0,7.0,80,0.00,,,0.00,Rainwise IP-100,2013-06-03 14:17:00,
2013-06-03 09:22:00,67.0,61.0,30.05,East,90,7.0,8.0,80,0.00,,,0.00,Rainwise IP-100,2013-06-03 14:22:00,
2013-06-03 09:27:00,67.0,61.0,30.04,WNW,292,0.0,7.0,81,0.00,,,0.00,Rainwise IP-100,2013-06-03 14:27:00,
2013-06-03 09:32:00,68.0,61.5,30.04,NE,45,7.0,7.0,79,0.00,,,0.00,Rainwise IP-100,2013-06-03 14:32:00,
2013-06-03 09:37:00,67.0,60.0,30.03,ESE,112,6.0,10.0,78,0.00,,,0.00,Rainwise IP-100,2013-06-03 14:37:00,
2013-06-03 09:42:00,69.0,61.5,30.03,NE,45,8.0,8.0,78,0.00,,,0.00,Rainwise IP-100,2013-06-03 14:42:00,
2013-06-03 09:47:00,69.0,61.5,30.03,ENE,67,3.0,9.0,77,0.00,,,0.00,Rainwise IP-100,2013-06-03 14:47:00,
2013-06-03 09:52:00,70.0,61.5,30.03,ENE,67,0.0,7.0,74,0.00,,,0.00,Rainwise IP-100,2013-06-03 14:52:00,
2013-06-03 09:57:00,70.0,60.5,30.03,SE,135,4.0,10.0,72,0.00,,,0.00,Rainwise IP-100,2013-06-03 14:57:00,
2013-06-03 10:02:00,69.0,59.0,30.03,East,90,7.0,10.0,70,0.00,,,0.00,Rainwise IP-100,2013-06-03 15:02:00,
2013-06-03 10:07:00,69.0,59.0,30.03,NE,45,6.0,9.0,71,0.00,,,0.00,Rainwise IP-100,2013-06-03 15:07:00,
2013-06-03 10:12:00,70.0,59.5,30.03,NE,45,7.0,10.0,69,0.00,,,0.00,Rainwise IP-100,2013-06-03 15:12:00,
2013-06-03 10:17:00,71.0,60.0,30.03,NNE,22,1.0,9.0,68,0.00,,,0.00,Rainwise IP-100,2013-06-03 15:17:00,
2013-06-03 10:22:00,70.0,58.0,30.03,North,360,1.0,9.0,66,0.00,,,0.00,Rainwise IP-100,2013-06-03 15:22:00,
2013-06-03 10:27:00,71.0,59.5,30.02,North,360,1.0,8.0,67,0.00,,,0.00,Rainwise IP-100,2013-06-03 15:27:00,
2013-06-03 10:32:00,71.0,58.0,30.02,East,90,7.0,9.0,64,0.00,,,0.00,Rainwise IP-100,2013-06-03 15:32:00,
2013-06-03 10:37:00,70.0,57.0,30.03,NE,45,7.0,11.0,64,0.00,,,0.00,Rainwise IP-100,2013-06-03 15:37:00,
2013-06-03 10:42:00,71.0,60.0,30.03,ESE,112,4.0,8.0,68,0.00,,,0.00,Rainwise IP-100,2013-06-03 15:42:00,
2013-06-03 10:47:00,70.0,57.0,30.03,ENE,67,2.0,10.0,63,0.00,,,0.00,Rainwise IP-100,2013-06-03 15:47:00,
2013-06-03 10:52:00,70.0,57.0,30.03,East,90,6.0,10.0,64,0.00,,,0.00,Rainwise IP-100,2013-06-03 15:52:00,
2013-06-03 10:57:00,70.0,57.0,30.01,NE,45,9.0,12.0,63,0.00,,,0.00,Rainwise IP-100,2013-06-03 15:57:00,
2013-06-03 11:02:00,70.0,59.0,30.01,NE,45,6.0,11.0,67,0.00,,,0.00,Rainwise IP-100,2013-06-03 16:02:00,
2013-06-03 11:07:00,71.0,58.0,30.01,NE,45,9.0,10.0,65,0.00,,,0.00,Rainwise IP-100,2013-06-03 16:07:00,
2013-06-03 11:12:00,71.0,57.0,30.01,ESE,112,5.0,10.0,62,0.00,,,0.00,Rainwise IP-100,2013-06-03 16:12:00,
2013-06-03 11:17:00,72.0,56.5,30.01,ENE,67,5.0,8.0,58,0.00,,,0.00,Rainwise IP-100,2013-06-03 16:17:00,
2013-06-03 11:22:00,72.0,56.0,30.01,NE,45,7.0,9.0,57,0.00,,,0.00,Rainwise IP-100,2013-06-03 16:22:00,
2013-06-03 11:27:00,71.0,56.0,30.01,NE,45,8.0,9.0,59,0.00,,,0.00,Rainwise IP-100,2013-06-03 16:27:00,
2013-06-03 11:32:00,71.0,56.5,30.01,ENE,67,6.0,9.0,60,0.00,,,0.00,Rainwise IP-100,2013-06-03 16:32:00,
2013-06-03 11:37:00,71.0,57.0,30.01,East,90,2.0,7.0,62,0.00,,,0.00,Rainwise IP-100,2013-06-03 16:37:00,
2013-06-03 11:42:00,72.0,57.0,30.01,NE,45,4.0,7.0,60,0.00,,,0.00,Rainwise IP-100,2013-06-03 16:42:00,
2013-06-03 11:47:00,72.0,58.0,30.01,NNE,22,0.0,6.0,62,0.00,,,0.00,Rainwise IP-100,2013-06-03 16:47:00,
2013-06-03 11:52:00,72.0,57.0,30.01,NW,315,0.0,6.0,60,0.00,,,0.00,Rainwise IP-100,2013-06-03 16:52:00,
2013-06-03 11:57:00,73.0,57.5,30.00,ESE,112,3.0,4.0,59,0.00,,,0.00,Rainwise IP-100,2013-06-03 16:57:00,
2013-06-03 12:02:00,73.0,57.5,30.00,East,90,3.0,8.0,59,0.00,,,0.00,Rainwise IP-100,2013-06-03 17:02:00,
2013-06-03 12:07:00,74.0,59.0,29.99,East,90,1.0,6.0,59,0.00,,,0.00,Rainwise IP-100,2013-06-03 17:07:00,
2013-06-03 12:12:00,74.0,58.0,29.99,ENE,67,3.0,7.0,58,0.00,,,0.00,Rainwise IP-100,2013-06-03 17:12:00,
2013-06-03 12:17:00,73.0,54.5,29.99,NNE,22,4.0,6.0,53,0.00,,,0.00,Rainwise IP-100,2013-06-03 17:17:00,
2013-06-03 12:22:00,73.0,56.5,29.99,NE,45,1.0,5.0,56,0.00,,,0.00,Rainwise IP-100,2013-06-03 17:22:00,
2013-06-03 12:27:00,73.0,57.0,30.00,East,90,6.0,7.0,57,0.00,,,0.00,Rainwise IP-100,2013-06-03 17:27:00,
2013-06-03 12:32:00,72.0,55.0,30.00,NE,45,2.0,9.0,56,0.00,,,0.00,Rainwise IP-100,2013-06-03 17:32:00,
2013-06-03 12:37:00,74.0,57.5,29.99,East,90,1.0,6.0,56,0.00,,,0.00,Rainwise IP-100,2013-06-03 17:37:00,
2013-06-03 12:42:00,74.0,57.5,29.99,South,180,2.0,6.0,56,0.00,,,0.00,Rainwise IP-100,2013-06-03 17:42:00,
2013-06-03 12:47:00,74.0,57.5,29.99,North,360,1.0,6.0,57,0.00,,,0.00,Rainwise IP-100,2013-06-03 17:47:00,
2013-06-03 12:52:00,74.0,57.5,29.99,NE,45,0.0,6.0,56,0.00,,,0.00,Rainwise IP-100,2013-06-03 17:52:00,
2013-06-03 12:57:00,75.0,57.0,29.99,NNE,22,2.0,4.0,53,0.00,,,0.00,Rainwise IP-100,2013-06-03 17:57:00,
2013-06-03 13:02:00,75.0,57.5,29.99,NNE,22,4.0,5.0,54,0.00,,,0.00,Rainwise IP-100,2013-06-03 18:02:00,
2013-06-03 13:07:00,76.0,59.0,29.98,ENE,67,4.0,7.0,56,0.00,,,0.00,Rainwise IP-100,2013-06-03 18:07:00,
2013-06-03 13:12:00,75.0,59.0,29.98,North,360,4.0,7.0,57,0.00,,,0.00,Rainwise IP-100,2013-06-03 18:12:00,
2013-06-03 13:17:00,75.0,57.0,29.99,North,360,4.0,6.0,53,0.00,,,0.00,Rainwise IP-100,2013-06-03 18:17:00,
2013-06-03 13:22:00,74.0,55.0,29.99,NNE,22,4.0,7.0,52,0.00,,,0.00,Rainwise IP-100,2013-06-03 18:22:00,
2013-06-03 13:27:00,74.0,56.0,29.98,South,180,0.0,4.0,53,0.00,,,0.00,Rainwise IP-100,2013-06-03 18:27:00,
2013-06-03 13:32:00,73.0,57.5,29.98,South,180,0.0,5.0,58,0.00,,,0.00,Rainwise IP-100,2013-06-03 18:32:00,
2013-06-03 13:37:00,74.0,57.0,29.98,NE,45,0.0,6.0,55,0.00,,,0.00,Rainwise IP-100,2013-06-03 18:37:00,
2013-06-03 13:42:00,75.0,57.5,29.98,North,360,1.0,7.0,55,0.00,,,0.00,Rainwise IP-100,2013-06-03 18:42:00,
2013-06-03 13:47:00,74.0,57.5,29.98,East,90,1.0,9.0,57,0.00,,,0.00,Rainwise IP-100,2013-06-03 18:47:00,
2013-06-03 13:52:00,74.0,57.0,29.98,NE,45,2.0,8.0,55,0.00,,,0.00,Rainwise IP-100,2013-06-03 18:52:00,
2013-06-03 13:57:00,74.0,56.5,29.97,East,90,6.0,9.0,54,0.00,,,0.00,Rainwise IP-100,2013-06-03 18:57:00,
2013-06-03 14:02:00,76.0,58.0,29.97,West,270,0.0,7.0,54,0.00,,,0.00,Rainwise IP-100,2013-06-03 19:02:00,
2013-06-03 14:07:00,76.0,59.0,29.97,NNE,22,1.0,7.0,55,0.00,,,0.00,Rainwise IP-100,2013-06-03 19:07:00,
2013-06-03 14:12:00,76.0,56.0,29.97,North,360,0.0,5.0,50,0.00,,,0.00,Rainwise IP-100,2013-06-03 19:12:00,
2013-06-03 14:17:00,76.0,56.0,29.97,NNW,337,0.0,6.0,50,0.00,,,0.00,Rainwise IP-100,2013-06-03 19:17:00,
2013-06-03 14:22:00,76.0,55.0,29.97,SW,225,1.0,3.0,49,0.00,,,0.00,Rainwise IP-100,2013-06-03 19:22:00,
2013-06-03 14:27:00,77.0,57.5,29.96,North,360,1.0,5.0,51,0.00,,,0.00,Rainwise IP-100,2013-06-03 19:27:00,
2013-06-03 14:32:00,75.0,56.0,29.96,NE,45,1.0,7.0,51,0.00,,,0.00,Rainwise IP-100,2013-06-03 19:32:00,
2013-06-03 14:37:00,74.0,54.5,29.97,East,90,6.0,9.0,51,0.00,,,0.00,Rainwise IP-100,2013-06-03 19:37:00,
2013-06-03 14:42:00,74.0,56.0,29.97,NE,45,7.0,8.0,53,0.00,,,0.00,Rainwise IP-100,2013-06-03 19:42:00,
2013-06-03 14:47:00,74.0,56.5,29.97,NE,45,2.0,7.0,54,0.00,,,0.00,Rainwise IP-100,2013-06-03 19:47:00,
2013-06-03 14:52:00,74.0,57.5,29.97,West,270,0.0,6.0,56,0.00,,,0.00,Rainwise IP-100,2013-06-03 19:52:00,
2013-06-03 14:57:00,75.0,57.5,29.97,NE,45,1.0,4.0,55,0.00,,,0.00,Rainwise IP-100,2013-06-03 19:57:00,
2013-06-03 15:02:00,75.0,57.5,29.97,NE,45,4.0,5.0,55,0.00,,,0.00,Rainwise IP-100,2013-06-03 20:02:00,
2013-06-03 15:07:00,74.0,56.0,29.96,North,360,1.0,6.0,53,0.00,,,0.00,Rainwise IP-100,2013-06-03 20:07:00,
2013-06-03 15:12:00,73.0,55.0,29.96,NE,45,5.0,6.0,54,0.00,,,0.00,Rainwise IP-100,2013-06-03 20:12:00,
2013-06-03 15:17:00,75.0,57.0,29.96,NW,315,3.0,6.0,53,0.00,,,0.00,Rainwise IP-100,2013-06-03 20:17:00,
2013-06-03 15:22:00,75.0,57.5,29.96,North,360,1.0,6.0,55,0.00,,,0.00,Rainwise IP-100,2013-06-03 20:22:00,
2013-06-03 15:27:00,75.0,56.0,29.96,NE,45,3.0,7.0,51,0.00,,,0.00,Rainwise IP-100,2013-06-03 20:27:00,
2013-06-03 15:32:00,76.0,56.5,29.96,ENE,67,3.0,6.0,51,0.00,,,0.00,Rainwise IP-100,2013-06-03 20:32:00,
2013-06-03 15:37:00,76.0,56.0,29.95,East,90,3.0,6.0,50,0.00,,,0.00,Rainwise IP-100,2013-06-03 20:37:00,
2013-06-03 15:42:00,76.0,56.0,29.95,ENE,67,0.0,6.0,50,0.00,,,0.00,Rainwise IP-100,2013-06-03 20:42:00,
2013-06-03 15:47:00,77.0,57.0,29.94,NE,45,4.0,6.0,50,0.00,,,0.00,Rainwise IP-100,2013-06-03 20:47:00,
2013-06-03 15:52:00,77.0,56.0,29.94,SE,135,0.0,6.0,48,0.00,,,0.00,Rainwise IP-100,2013-06-03 20:52:00,
2013-06-03 15:57:00,78.0,56.0,29.94,NE,45,3.0,6.0,46,0.00,,,0.00,Rainwise IP-100,2013-06-03 20:57:00,
2013-06-03 16:02:00,78.0,56.5,29.94,West,270,4.0,5.0,47,0.00,,,0.00,Rainwise IP-100,2013-06-03 21:02:00,
2013-06-03 16:07:00,77.0,55.0,29.93,ENE,67,5.0,7.0,47,0.00,,,0.00,Rainwise IP-100,2013-06-03 21:07:00,
2013-06-03 16:12:00,77.0,56.0,29.93,NE,45,5.0,7.0,48,0.00,,,0.00,Rainwise IP-100,2013-06-03 21:12:00,
2013-06-03 16:17:00,77.0,54.0,29.94,NE,45,1.0,8.0,45,0.00,,,0.00,Rainwise IP-100,2013-06-03 21:17:00,
2013-06-03 16:22:00,78.0,56.5,29.94,NE,45,4.0,4.0,47,0.00,,,0.00,Rainwise IP-100,2013-06-03 21:22:00,
2013-06-03 16:27:00,76.0,54.5,29.94,West,270,3.0,6.0,48,0.00,,,0.00,Rainwise IP-100,2013-06-03 21:27:00,
2013-06-03 16:32:00,76.0,54.5,29.94,SW,225,2.0,8.0,48,0.00,,,0.00,Rainwise IP-100,2013-06-03 21:32:00,
2013-06-03 16:37:00,77.0,55.0,29.94,ESE,112,2.0,4.0,47,0.00,,,0.00,Rainwise IP-100,2013-06-03 21:37:00,
2013-06-03 16:42:00,77.0,56.0,29.94,NE,45,4.0,5.0,48,0.00,,,0.00,Rainwise IP-100,2013-06-03 21:42:00,
2013-06-03 16:47:00,77.0,56.5,29.94,NNE,22,3.0,6.0,49,0.00,,,0.00,Rainwise IP-100,2013-06-03 21:47:00,
2013-06-03 16:52:00,78.0,56.0,29.94,West,270,1.0,6.0,46,0.00,,,0.00,Rainwise IP-100,2013-06-03 21:52:00,
2013-06-03 16:57:00,79.0,56.0,29.94,NE,45,0.0,6.0,45,0.00,,,0.00,Rainwise IP-100,2013-06-03 21:57:00,
2013-06-03 17:02:00,78.0,56.5,29.94,ENE,67,3.0,6.0,47,0.00,,,0.00,Rainwise IP-100,2013-06-03 22:02:00,
2013-06-03 17:07:00,78.0,58.0,29.93,NE,45,2.0,5.0,50,0.00,,,0.00,Rainwise IP-100,2013-06-03 22:07:00,
2013-06-03 17:12:00,78.0,58.0,29.93,NE,45,2.0,3.0,50,0.00,,,0.00,Rainwise IP-100,2013-06-03 22:12:00,
2013-06-03 17:17:00,78.0,59.5,29.93,East,90,1.0,3.0,53,0.00,,,0.00,Rainwise IP-100,2013-06-03 22:17:00,
2013-06-03 17:22:00,77.0,57.0,29.93,ENE,67,1.0,6.0,50,0.00,,,0.00,Rainwise IP-100,2013-06-03 22:22:00,
2013-06-03 17:27:00,78.0,57.0,29.93,NE,45,1.0,6.0,48,0.00,,,0.00,Rainwise IP-100,2013-06-03 22:27:00,
2013-06-03 17:32:00,76.0,56.0,29.93,East,90,2.0,6.0,50,0.00,,,0.00,Rainwise IP-100,2013-06-03 22:32:00,
2013-06-03 17:37:00,76.0,57.5,29.94,NE,45,1.0,7.0,53,0.00,,,0.00,Rainwise IP-100,2013-06-03 22:37:00,
2013-06-03 17:42:00,75.0,55.0,29.94,NE,45,6.0,7.0,50,0.00,,,0.00,Rainwise IP-100,2013-06-03 22:42:00,
2013-06-03 17:47:00,76.0,57.0,29.94,NE,45,1.0,7.0,52,0.00,,,0.00,Rainwise IP-100,2013-06-03 22:47:00,
2013-06-03 17:52:00,77.0,56.5,29.94,NE,45,3.0,6.0,49,0.00,,,0.00,Rainwise IP-100,2013-06-03 22:52:00,
2013-06-03 17:57:00,77.0,56.0,29.93,North,360,2.0,5.0,48,0.00,,,0.00,Rainwise IP-100,2013-06-03 22:57:00,
2013-06-03 18:02:00,77.0,56.0,29.93,NE,45,4.0,9.0,48,0.00,,,0.00,Rainwise IP-100,2013-06-03 23:02:00,
2013-06-03 18:07:00,77.0,57.0,29.93,NW,315,0.0,5.0,50,0.00,,,0.00,Rainwise IP-100,2013-06-03 23:07:00,
2013-06-03 18:12:00,78.0,57.0,29.93,NW,315,0.0,6.0,48,0.00,,,0.00,Rainwise IP-100,2013-06-03 23:12:00,
2013-06-03 18:17:00,78.0,56.0,29.93,West,270,0.0,3.0,46,0.00,,,0.00,Rainwise IP-100,2013-06-03 23:17:00,
2013-06-03 18:22:00,77.0,54.0,29.93,NNE,22,0.0,5.0,45,0.00,,,0.00,Rainwise IP-100,2013-06-03 23:22:00,
2013-06-03 18:27:00,77.0,54.5,29.93,NW,315,3.0,4.0,46,0.00,,,0.00,Rainwise IP-100,2013-06-03 23:27:00,
2013-06-03 18:32:00,77.0,57.0,29.93,SSW,202,1.0,5.0,50,0.00,,,0.00,Rainwise IP-100,2013-06-03 23:32:00,
2013-06-03 18:37:00,76.0,57.0,29.94,ENE,67,0.0,7.0,52,0.00,,,0.00,Rainwise IP-100,2013-06-03 23:37:00,
2013-06-03 18:42:00,74.0,55.0,29.94,ENE,67,3.0,7.0,52,0.00,,,0.00,Rainwise IP-100,2013-06-03 23:42:00,
2013-06-03 18:47:00,73.0,55.0,29.94,NE,45,7.0,8.0,54,0.00,,,0.00,Rainwise IP-100,2013-06-03 23:47:00,
2013-06-03 18:52:00,72.0,54.5,29.94,East,90,5.0,10.0,55,0.00,,,0.00,Rainwise IP-100,2013-06-03 23:52:00,
2013-06-03 18:57:00,72.0,56.5,29.95,NE,45,4.0,9.0,58,0.00,,,0.00,Rainwise IP-100,2013-06-03 23:57:00,
2013-06-03 19:02:00,71.0,54.5,29.95,ENE,67,2.0,7.0,57,0.00,,,0.00,Rainwise IP-100,2013-06-04 00:02:00,
2013-06-03 19:07:00,71.0,56.5,29.96,East,90,3.0,9.0,60,0.00,,,0.00,Rainwise IP-100,2013-06-04 00:07:00,
2013-06-03 19:12:00,70.0,56.5,29.96,SE,135,6.0,7.0,62,0.00,,,0.00,Rainwise IP-100,2013-06-04 00:12:00,
2013-06-03 19:17:00,70.0,57.0,29.95,NE,45,1.0,9.0,64,0.00,,,0.00,Rainwise IP-100,2013-06-04 00:17:00,
2013-06-03 19:22:00,69.0,56.0,29.95,NE,45,5.0,5.0,64,0.00,,,0.00,Rainwise IP-100,2013-06-04 00:22:00,
2013-06-03 19:27:00,69.0,56.5,29.95,NE,45,5.0,7.0,65,0.00,,,0.00,Rainwise IP-100,2013-06-04 00:27:00,
2013-06-03 19:32:00,69.0,57.0,29.95,ENE,67,3.0,9.0,66,0.00,,,0.00,Rainwise IP-100,2013-06-04 00:32:00,
2013-06-03 19:37:00,68.0,56.5,29.95,ENE,67,2.0,7.0,67,0.00,,,0.00,Rainwise IP-100,2013-06-04 00:37:00,
2013-06-03 19:42:00,68.0,56.5,29.95,ENE,67,5.0,7.0,67,0.00,,,0.00,Rainwise IP-100,2013-06-04 00:42:00,
2013-06-03 19:47:00,68.0,57.0,29.96,ENE,67,1.0,7.0,68,0.00,,,0.00,Rainwise IP-100,2013-06-04 00:47:00,
2013-06-03 19:52:00,68.0,57.5,29.96,NE,45,4.0,7.0,69,0.00,,,0.00,Rainwise IP-100,2013-06-04 00:52:00,
2013-06-03 19:57:00,67.0,56.5,29.96,NE,45,3.0,9.0,69,0.00,,,0.00,Rainwise IP-100,2013-06-04 00:57:00,
2013-06-03 20:02:00,67.0,57.5,29.96,NE,45,3.0,5.0,72,0.00,,,0.00,Rainwise IP-100,2013-06-04 01:02:00,
2013-06-03 20:07:00,67.0,58.0,29.96,NE,45,0.0,6.0,73,0.00,,,0.00,Rainwise IP-100,2013-06-04 01:07:00,
2013-06-03 20:12:00,66.0,57.0,29.96,ENE,67,2.0,7.0,73,0.00,,,0.00,Rainwise IP-100,2013-06-04 01:12:00,
2013-06-03 20:17:00,66.0,57.0,29.97,NE,45,5.0,6.0,74,0.00,,,0.00,Rainwise IP-100,2013-06-04 01:17:00,
2013-06-03 20:22:00,66.0,57.0,29.97,NE,45,2.0,8.0,74,0.00,,,0.00,Rainwise IP-100,2013-06-04 01:22:00,
2013-06-03 20:27:00,65.0,57.0,29.97,NNE,22,2.0,7.0,76,0.00,,,0.00,Rainwise IP-100,2013-06-04 01:27:00,
2013-06-03 20:32:00,65.0,57.0,29.97,NE,45,1.0,6.0,76,0.00,,,0.00,Rainwise IP-100,2013-06-04 01:32:00,
2013-06-03 20:37:00,65.0,57.0,29.97,NE,45,0.0,6.0,76,0.00,,,0.00,Rainwise IP-100,2013-06-04 01:37:00,
2013-06-03 20:42:00,65.0,57.5,29.97,NE,45,2.0,7.0,77,0.00,,,0.00,Rainwise IP-100,2013-06-04 01:42:00,
2013-06-03 20:47:00,65.0,58.0,29.97,NE,45,3.0,6.0,79,0.00,,,0.00,Rainwise IP-100,2013-06-04 01:47:00,
2013-06-03 20:52:00,64.0,57.0,29.97,NE,45,5.0,6.0,79,0.00,,,0.00,Rainwise IP-100,2013-06-04 01:52:00,
2013-06-03 20:57:00,65.0,57.5,29.97,NE,45,6.0,7.0,78,0.00,,,0.00,Rainwise IP-100,2013-06-04 01:57:00,
2013-06-03 21:02:00,64.0,57.0,29.97,NE,45,4.0,7.0,78,0.00,,,0.00,Rainwise IP-100,2013-06-04 02:02:00,
2013-06-03 21:07:00,64.0,57.0,29.98,NE,45,4.0,5.0,78,0.00,,,0.00,Rainwise IP-100,2013-06-04 02:07:00,
2013-06-03 21:12:00,64.0,57.0,29.98,NE,45,4.0,6.0,79,0.00,,,0.00,Rainwise IP-100,2013-06-04 02:12:00,
2013-06-03 21:17:00,64.0,57.5,29.99,NE,45,5.0,6.0,80,0.00,,,0.00,Rainwise IP-100,2013-06-04 02:17:00,
2013-06-03 21:22:00,64.0,59.0,29.99,NE,45,4.0,6.0,84,0.00,,,0.00,Rainwise IP-100,2013-06-04 02:22:00,
2013-06-03 21:27:00,63.0,59.5,29.99,NE,45,4.0,6.0,88,0.00,,,0.00,Rainwise IP-100,2013-06-04 02:27:00,
2013-06-03 21:32:00,63.0,59.5,29.99,NE,45,5.0,6.0,88,0.00,,,0.00,Rainwise IP-100,2013-06-04 02:32:00,
2013-06-03 21:37:00,63.0,59.0,29.99,ENE,67,2.0,7.0,86,0.00,,,0.00,Rainwise IP-100,2013-06-04 02:37:00,
2013-06-03 21:42:00,63.0,57.5,29.99,NE,45,4.0,7.0,83,0.00,,,0.00,Rainwise IP-100,2013-06-04 02:42:00,
2013-06-03 21:47:00,63.0,57.0,29.99,NE,45,7.0,9.0,81,0.00,,,0.00,Rainwise IP-100,2013-06-04 02:47:00,
2013-06-03 21:52:00,63.0,56.5,29.99,ENE,67,7.0,9.0,80,0.00,,,0.00,Rainwise IP-100,2013-06-04 02:52:00,
2013-06-03 21:57:00,63.0,56.5,30.00,NE,45,6.0,9.0,80,0.00,,,0.00,Rainwise IP-100,2013-06-04 02:57:00,
2013-06-03 22:02:00,63.0,56.5,30.00,NE,45,6.0,9.0,79,0.00,,,0.00,Rainwise IP-100,2013-06-04 03:02:00,
2013-06-03 22:07:00,63.0,56.5,30.00,NE,45,6.0,10.0,80,0.00,,,0.00,Rainwise IP-100,2013-06-04 03:07:00,
2013-06-03 22:12:00,62.0,56.0,30.00,ENE,67,2.0,10.0,81,0.00,,,0.00,Rainwise IP-100,2013-06-04 03:12:00,
2013-06-03 22:17:00,62.0,56.0,30.01,NE,45,5.0,11.0,80,0.00,,,0.00,Rainwise IP-100,2013-06-04 03:17:00,
2013-06-03 22:22:00,62.0,56.0,30.01,NE,45,6.0,9.0,81,0.00,,,0.00,Rainwise IP-100,2013-06-04 03:22:00,
2013-06-03 22:27:00,62.0,56.0,30.01,NE,45,9.0,10.0,80,0.00,,,0.00,Rainwise IP-100,2013-06-04 03:27:00,
2013-06-03 22:32:00,62.0,56.5,30.01,ENE,67,5.0,9.0,82,0.00,,,0.00,Rainwise IP-100,2013-06-04 03:32:00,
2013-06-03 22:37:00,62.0,56.0,30.01,NE,45,7.0,9.0,81,0.00,,,0.00,Rainwise IP-100,2013-06-04 03:37:00,
2013-06-03 22:42:00,62.0,56.5,30.01,NE,45,7.0,9.0,82,0.00,,,0.00,Rainwise IP-100,2013-06-04 03:42:00,
2013-06-03 22:47:00,62.0,56.5,30.01,NE,45,6.0,9.0,83,0.00,,,0.00,Rainwise IP-100,2013-06-04 03:47:00,
2013-06-03 22:52:00,61.0,55.0,30.01,NE,45,7.0,10.0,82,0.00,,,0.00,Rainwise IP-100,2013-06-04 03:52:00,
2013-06-03 22:57:00,61.0,55.0,30.01,NE,45,6.0,10.0,82,0.00,,,0.00,Rainwise IP-100,2013-06-04 03:57:00,
2013-06-03 23:01:00,61.0,56.0,30.01,East,90,3.0,9.0,83,0.00,,,0.00,Rainwise IP-100,2013-06-04 04:01:00,
2013-06-03 23:06:00,61.0,55.0,30.01,NE,45,9.0,10.0,82,0.00,,,0.00,Rainwise IP-100,2013-06-04 04:06:00,
2013-06-03 23:11:00,61.0,56.0,30.01,NE,45,7.0,10.0,84,0.00,,,0.00,Rainwise IP-100,2013-06-04 04:11:00,
2013-06-03 23:16:00,61.0,56.0,30.02,NNE,22,7.0,9.0,84,0.00,,,0.00,Rainwise IP-100,2013-06-04 04:16:00,
2013-06-03 23:21:00,61.0,56.5,30.02,NE,45,5.0,9.0,86,0.00,,,0.00,Rainwise IP-100,2013-06-04 04:21:00,
2013-06-03 23:26:00,61.0,56.5,30.01,NE,45,9.0,10.0,85,0.00,,,0.00,Rainwise IP-100,2013-06-04 04:26:00,
2013-06-03 23:31:00,60.0,56.0,30.01,NE,45,3.0,10.0,86,0.00,,,0.00,Rainwise IP-100,2013-06-04 04:31:00,
2013-06-03 23:36:00,60.0,55.0,30.01,NNE,22,7.0,10.0,85,0.00,,,0.00,Rainwise IP-100,2013-06-04 04:36:00,
2013-06-03 23:41:00,60.0,56.0,30.01,NE,45,6.0,10.0,86,0.00,,,0.00,Rainwise IP-100,2013-06-04 04:41:00,
2013-06-03 23:46:00,60.0,55.0,30.02,NE,45,7.0,9.0,85,0.00,,,0.00,Rainwise IP-100,2013-06-04 04:46:00,
2013-06-03 23:51:00,60.0,56.0,30.02,East,90,2.0,8.0,86,0.00,,,0.00,Rainwise IP-100,2013-06-04 04:51:00,
2013-06-03 23:56:00,60.0,56.0,30.02,NE,45,6.0,8.0,87,0.00,,,0.00,Rainwise IP-100,2013-06-04 04:56:00,